Weather History for Jacksonville Craig, FL

Change the Weather History Date:

Tuesday, February 21, 2012

  Actual Average Record
Temperature  
Mean Temperature 58 °F -  
Max Temperature 69 °F 66 °F 80 °F (1997)
Min Temperature 46 °F 48 °F 32 °F (2009)
Degree Days  
Heating Degree Days 8    
Growing Degree Days 8 (Base 50)    
Moisture  
Dew Point 50 °F    
Average Humidity 76    
Maximum Humidity 93    
Minimum Humidity 49    
Precipitation  
Precipitation 0.00 in - - ()
Sea Level Pressure  
Sea Level Pressure 30.20 in    
Wind  
Wind Speed 3 mph (SSW)    
Max Wind Speed 10 mph    
Max Gust Speed 16 mph    
Visibility 10 miles    
Events      
Averages and records for this station are not official NWS values.
T = Trace of Precipitation, MM = Missing Value Source: NWS Daily Summary

Daily Weather History Graph

Daily Weather History Graph

Search for Another Location

Airport:

Trip Planner

Search our weather history database for the weather conditions in past years. The results will help you decide how hot, cold, wet, or windy it might be!

Date:

Astronomy

Feb. 21, 2012 Rise Set
Actual Time 7:01 AM EST 6:18 PM EST
Civil Twilight 6:36 AM EST 6:43 PM EST
Nautical Twilight 6:08 AM EST 7:11 PM EST
Astronomical Twilight 5:40 AM EST 7:38 PM EST
Moon 6:31 AM EST (2/21) 6:19 PM EST (2/21)
Length of Visible Light 12h 06m
Length of Day
11h 17m
Waning Crescent, 0% of the Moon is Illuminated
Feb 21
Waning Crescent
Feb 21
New
Feb 29
First Quarter
Mar 8
Full
Mar 14
Last Quarter

Hourly Weather History & Observations

Time (EST) Temp. Dew Point Humidity Pressure Visibility Wind Dir Wind Speed Gust Speed Precip Events Conditions
12:53 AM 52.0 °F 46.0 °F 80% 30.25 in 10.0 mi NE 4.6 mph - N/A   Clear
1:53 AM 51.1 °F 46.0 °F 83% 30.24 in 10.0 mi Calm Calm - N/A   Clear
2:53 AM 48.9 °F 46.0 °F 90% 30.22 in 10.0 mi Calm Calm - N/A   Clear
3:53 AM 48.0 °F 45.0 °F 89% 30.21 in 10.0 mi Calm Calm - N/A   Clear
4:53 AM 50.0 °F 46.9 °F 89% 30.20 in 10.0 mi Calm Calm - N/A   Clear
5:53 AM 46.9 °F 45.0 °F 93% 30.20 in 7.0 mi Calm Calm - N/A   Clear
6:53 AM 46.0 °F 43.0 °F 89% 30.20 in 10.0 mi Calm Calm - N/A   Clear
7:53 AM 51.1 °F 48.9 °F 92% 30.24 in 7.0 mi Calm Calm - N/A   Partly Cloudy
8:53 AM 57.9 °F 54.0 °F 87% 30.27 in 10.0 mi NNW 9.2 mph - N/A   Clear
9:53 AM 64.0 °F 54.0 °F 70% 30.29 in 10.0 mi NNE 5.8 mph - N/A   Scattered Clouds
10:53 AM 68.0 °F 52.0 °F 56% 30.27 in 10.0 mi Variable 5.8 mph - N/A   Clear
11:53 AM 69.1 °F 51.1 °F 53% 30.25 in 10.0 mi South 6.9 mph 16.1 mph N/A   Mostly Cloudy
12:53 PM 68.0 °F 52.0 °F 56% 30.22 in 10.0 mi SE 4.6 mph - N/A   Overcast
2:53 PM 69.1 °F 48.9 °F 49% 30.16 in 10.0 mi South 10.4 mph - N/A   Overcast
3:53 PM 69.1 °F 48.9 °F 49% 30.15 in 10.0 mi SW 5.8 mph - N/A   Overcast
5:53 PM 66.9 °F 51.1 °F 57% 30.14 in 10.0 mi WSW 3.5 mph - N/A   Clear
6:53 PM 60.1 °F 52.0 °F 75% 30.13 in 10.0 mi Calm Calm - N/A   Partly Cloudy
8:53 PM 62.1 °F 55.0 °F 78% 30.15 in 10.0 mi Calm Calm - N/A   Mostly Cloudy
9:53 PM 55.9 °F 52.0 °F 87% 30.15 in 10.0 mi Calm Calm - N/A   Scattered Clouds
10:53 PM 57.0 °F 53.1 °F 87% 30.14 in 10.0 mi Calm Calm - N/A   Scattered Clouds
11:53 PM 55.9 °F 52.0 °F 87% 30.12 in 10.0 mi Calm Calm - N/A   Clear